SCP
0 0 0 -0 -0 -0 -0 0 0 0 0 0 0 0 0 0 0 0 0 0 0 0 0 0 0 0 0 0 0 0 0 0 0 0 0 0 0 0 0 0 0 0 0 0 0 0 0 0 0
0 0 -0 -0 -0 -0 0 0 0 0 0 0 0 0 0 0 0 0 0 0 0 0 0 0 0 0 0 0 0 0 0 0 0 0 0 0 0 0 0 0 0 0 0 0 0 0 0 0 0
0 -0 -0 -0 -0 0 0 0 0 0 0 0 0 0 0 0 0 0 0 0 0 0 0 0 0 0 0 0 0 0 0 0 0 0 0 0 0 0 0 0 0 0 0 0 0 0 0 0 0
-0 -0 -0 -0 0 0 0 0 0 0 0 0 0 0 0 0 0 0 0 0 0 0 0 0 0 0 0 0 0 0 0 0 0 0 0 0 0 0 0 0 0 0 0 0 0 0 0 0 0
-0 -0 -0 -0 0 0 0 0 0 0 0 0 0 0 0 0 0 0 0 0 0 0 0 0 0 0 0 0 0 0 0 0 0 0 0 0 0 0 0 0 0 0 0 0 0 0 0 0 0
0 0 0 0 0 0 0 0 0 0 0 0 0 0 0 0 0 0 0 0 0 0 0 0 0 0 0 0 0 0 0 0 0 0 0 0 0 0 0 0 0 0 0 0 0 0 0 0 0
0 0 0 0 0 0 0 0 0 0 0 0 0 0 0 0 0 0 0 0 0 0 0 0 0 0 0 0 0 0 0 0 0 0 0 0 0 0 0 0 0 0 0 0 0 0 0 0 0
0 0 0 0 0 0 0 0 0 0 0 0 0 0 0 0 0 0 0 0 0 0 0 0 0 0 0 0 0 0 0 0 0 0 0 0 0 0 0 0 0 0 0 0 0 0 0 0 0
0 0 0 0 0 0 0 0 0 0 0 0 0 0 0 0 0 0 0 0 0 0 0 0 0 0 0 0 0 0 0 0 0 0 0 0 0 0 0 0 0 0 0 0 0 0 0 0 0
0 0 0 0 0 0 0 0 0 0 0 0 0 0 0 0 1 0 0 0 0 0 0 0 0 0 0 0 0 0 0 0 0 0 0 0 0 0 0 0 0 0 0 0 0 0 0 0 0
0 0 0 0 0 0 0 0 0 0 0 0 0 0 0 1 1 0 0 0 0 0 0 0 0 0 0 0 0 0 0 0 0 0 0 0 0 0 0 0 0 0 0 0 0 0 0 0 0
0 0 0 0 0 0 0 0 0 0 0 0 0 0 1 1 0 0 0 0 0 0 0 0 0 0 0 0 0 0 0 0 0 0 0 0 0 0 0 0 0 0 0 0 0 0 0 0 0
0 0 0 0 0 0 0 0 0 0 0 0 0 0 0 0 0 0 0 0 0 0 0 0 0 0 0 0 0 0 0 0 0 0 0 0 0 0 0 0 0 0 0 0 0 0 0 0 0
0 0 0 0 0 0 0 0 0 0 0 0 0 0 0 0 0 0 0 0 0 0 0 0 0 0 0 0 0 0 0 0 0 0 0 0 0 0 0 0 0 0 0 0 0 0 0 0 0
0 0 0 0 0 0 0 0 0 0 0 0 0 0 0 0 0 1 1 1 1 0 0 0 0 0 0 0 0 0 0 0 0 0 0 0 0 0 0 0 0 0 0 0 0 0 0 0 0
0 0 0 0 0 0 0 0 0 0 0 0 0 0 0 0 0 1 1 1 1 0 0 0 0 0 0 0 0 0 0 0 0 0 0 0 0 0 0 0 0 0 0 0 0 0 0 0 0
0 0 0 0 0 0 0 0 0 0 0 0 0 0 0 0 0 1 1 1 1 1 0 0 0 0 0 0 0 0 0 0 0 0 0 0 0 0 0 0 0 0 0 0 0 0 0 0 0
0 0 0 0 0 0 0 0 0 0 0 0 0 0 0 0 0 1 1 1 1 1 1 1 0 0 0 0 0 0 0 0 0 0 0 0 0 0 0 0 0 0 0 0 0 0 0 0 0
0 0 0 0 0 0 0 0 0 0 0 0 0 0 0 0 0 1 1 1 1 1 1 1 1 0 0 0 0 0 0 0 0 0 0 0 0 0 0 0 0 0 0 0 0 0 0 0 0
0 0 0 0 0 0 0 0 0 0 0 0 0 0 0 0 0 0 0 0 0 1 1 1 1 0 0 0 0 0 0 0 0 0 0 0 0 0 0 0 0 0 0 0 0 0 0 0 0
0 0 0 0 0 0 0 0 0 0 0 0 0 0 0 0 0 0 0 0 0 0 0 0 0 0 0 0 0 0 0 0 0 0 0 0 0 0 0 0 0 0 0 0 0 0 0 0 0
0 0 0 0 0 0 0 0 0 0 0 0 0 0 0 0 0 0 0 0 0 0 0 0 0 0 0 0 0 0 0 0 0 0 0 0 0 0 0 0 0 0 0 0 0 0 0 0 0
0 0 0 0 0 0 0 0 0 0 0 0 0 0 0 0 0 0 0 0 0 0 0 0 0 0 0 0 0 0 0 0 0 0 0 0 0 0 0 0 0 0 0 0 0 0 0 0 0
0 0 0 0 0 0 0 0 0 0 0 0 0 0 0 0 0 0 0 0 0 0 0 0 0 0 0 0 0 0 0 0 0 0 0 0 0 0 0 0 0 0 0 0 0 0 0 0 0
0 0 0 0 0 0 0 0 0 0 0 0 0 0 0 0 0 0 0 0 0 0 0 0 0 0 0 0 0 0 0 0 0 1 1 1 1 0 0 0 0 0 0 0 0 0 0 0 0
0 0 0 0 0 0 0 0 0 0 0 0 0 0 0 0 0 0 0 0 0 0 0 0 0 0 0 0 0 0 0 1 1 1 1 1 1 1 1 1 0 0 0 0 0 0 0 0 0
0 0 0 0 0 0 0 0 0 0 0 0 0 0 0 0 0 0 0 0 0 0 0 0 0 0 0 0 0 0 0 0 1 1 1 1 1 1 1 1 1 1 0 0 0 0 0 0 0
0 0 0 0 0 0 0 0 0 0 0 0 0 0 0 0 0 0 0 0 0 0 0 0 0 0 0 0 0 0 0 0 0 0 0 0 1 1 1 1 1 1 0 0 0 0 0 0 0
0 0 0 0 0 0 0 0 0 0 0 0 0 0 0 0 0 0 0 0 0 0 0 0 0 0 0 0 0 0 0 0 0 0 0 0 0 1 1 1 1 1 0 0 0 0 0 0 0
0 0 0 0 0 0 0 0 0 0 0 0 0 0 0 0 0 0 0 0 0 0 0 0 0 0 0 0 0 0 0 0 0 0 0 0 0 1 1 1 1 0 0 0 0 0 0 0 0
Wind_Speed
4 4 2 2 5 6 2 2 1 2 2 1 3 4 5 3 2 2 1 7 8 7 5 7 9 8 8 8 8 8 9 8 8 8 8 7 7 6 6 6 5 6 6 6 7 8 9 8 8
3 3 2 4 6 3 3 3 2 1 1 3 4 4 4 3 2 4 3 5 8 8 5 6 9 9 8 8 8 8 8 8 8 7 7 7 6 6 6 5 5 5 5 6 7 8 8 8 8
3 1 4 5 4 3 2 2 0 1 1 2 3 4 3 2 3 4 3 8 8 6 5 6 10 9 8 8 8 8 8 7 7 7 6 6 6 5 5 5 4 4 5 6 7 7 7 8 8
3 4 5 5 1 3 4 3 1 2 2 3 4 4 3 2 3 4 8 10 8 6 5 6 10 9 8 8 8 8 8 7 7 7 6 6 5 5 4 3 3 3 5 6 7 7 7 8 8
4 4 5 3 2 3 3 2 2 3 1 2 3 3 2 3 6 9 9 8 8 6 4 5 9 8 8 7 7 7 7 6 6 6 6 6 5 4 4 3 3 3 5 7 7 7 7 7 7
5 5 5 0 3 3 2 1 2 3 2 2 3 3 1 2 6 8 8 6 6 6 4 4 8 8 8 7 7 6 6 6 5 5 5 5 5 4 4 4 4 4 7 7 8 7 7 7 7
5 4 3 2 1 2 2 1 3 4 3 2 4 4 1 2 5 7 7 6 5 5 4 3 3 5 7 7 6 6 6 5 5 5 4 4 4 4 4 4 5 6 7 7 8 7 7 7 7
5 5 2 1 2 2 1 1 1 4 3 3 4 6 5 5 6 7 7 5 4 3 3 3 2 2 2 3 5 5 5 5 4 4 4 4 3 3 3 4 5 6 6 7 7 8 7 7 7
4 5 1 4 4 3 1 1 1 1 4 2 2 4 5 11 10 8 6 4 3 4 2 2 3 2 2 2 3 4 4 3 3 2 3 2 2 2 2 3 4 5 6 6 6 7 7 7 7
4 3 5 4 4 3 1 1 2 2 3 2 2 3 10 12 11 10 8 7 6 6 4 3 3 3 2 2 2 1 1 1 1 1 2 2 2 2 2 4 4 4 5 5 6 7 6 5 3
3 5 4 3 3 3 2 1 2 6 3 6 7 10 13 12 10 9 8 7 7 6 5 4 3 3 3 1 2 1 1 1 1 1 2 2 2 2 2 2 3 3 4 3 4 4 3 3 3
2 3 3 3 1 2 2 2 2 5 6 5 9 14 14 13 12 10 9 8 6 5 5 5 5 4 3 2 2 2 1 1 1 1 1 1 1 1 1 2 2 2 2 3 3 2 3 3 4
2 3 2 2 1 1 2 2 2 3 2 6 10 11 12 12 10 8 7 6 6 6 5 5 5 4 3 3 2 2 1 1 1 1 1 1 1 1 1 1 2 2 2 2 2 2 3 3 3
2 2 3 2 0 0 2 0 1 3 4 8 10 10 10 11 10 7 7 7 6 6 5 4 5 4 4 3 2 2 2 1 1 1 1 1 1 1 1 1 1 1 2 2 2 3 2 2 2
1 2 5 2 1 1 3 2 3 3 6 7 8 8 8 8 8 9 9 8 8 6 5 4 5 4 4 3 3 2 1 1 1 1 1 1 1 2 2 1 1 1 1 2 2 3 2 2 3
3 3 3 5 2 1 4 4 4 1 5 6 7 7 8 7 8 7 7 6 6 6 5 4 4 4 4 3 3 2 2 2 1 1 0 1 1 2 2 2 1 1 1 2 2 2 2 2 2
4 1 2 5 2 2 2 3 4 1 4 5 6 7 7 6 5 5 6 6 6 6 6 5 4 5 4 3 2 2 2 2 1 1 1 1 1 2 2 2 1 2 2 1 2 2 2 2 2
2 1 2 4 3 3 1 2 3 0 3 4 4 4 5 5 4 4 5 5 5 6 6 5 4 4 4 3 2 1 1 1 0 1 1 2 1 2 2 2 2 2 2 2 2 3 2 2 2
3 2 3 5 2 1 1 2 3 0 1 2 2 3 4 4 2 3 3 4 4 4 5 5 5 3 3 3 2 2 1 1 0 0 1 2 2 2 2 2 2 2 2 2 3 3 3 2 1
3 2 3 4 1 2 1 2 3 1 1 2 4 4 5 4 3 2 3 4 4 4 3 3 4 4 3 2 2 2 1 1 0 0 0 1 1 2 3 3 2 2 2 3 3 3 2 1 1
3 5 4 4 2 2 1 4 3 2 2 2 1 2 4 6 6 4 4 4 4 4 3 3 3 3 3 3 2 2 2 2 1 1 1 1 0 2 2 3 3 3 3 3 3 3 4 2 1
4 5 5 3 1 2 1 2 5 2 3 1 1 2 3 4 4 5 5 4 4 3 3 3 3 3 2 3 3 3 3 2 2 1 1 0 0 1 1 2 3 3 3 3 3 3 3 3 2
5 1 2 2 3 1 2 2 6 2 2 3 3 3 3 4 5 5 5 5 4 4 3 3 3 2 2 2 3 3 2 1 0 0 0 0 1 0 1 2 2 3 2 3 3 3 3 2 2
3 5 5 5 5 0 3 3 5 3 4 3 2 2 3 4 5 5 4 4 4 4 3 3 4 2 2 2 2 3 3 2 1 1 0 0 0 0 0 1 2 2 2 3 3 3 4 3 3
4 6 4 4 4 4 2 2 6 5 4 4 4 3 3 4 5 5 5 5 4 3 3 3 4 3 1 1 1 2 2 2 2 1 1 1 1 1 1 1 1 1 2 2 3 3 3 4 3
3 7 7 5 4 4 2 3 6 3 2 1 1 2 3 4 4 4 5 5 4 4 3 3 3 2 1 1 1 1 1 1 1 1 1 1 2 2 1 1 1 1 2 2 2 2 3 2 3
4 2 5 7 2 0 3 4 6 2 1 1 2 2 3 4 4 4 4 4 4 3 3 3 2 2 1 1 1 1 1 1 1 1 1 1 1 1 0 1 1 1 1 2 2 2 3 3 3
4 7 5 6 5 2 3 3 5 4 3 1 1 2 2 3 4 4 4 4 4 3 3 3 2 2 2 1 1 1 0 1 1 1 1 0 1 1 1 1 1 1 1 2 2 2 2 3 2
3 4 5 4 4 6 3 6 5 6 5 4 3 3 3 4 4 4 3 3 3 2 2 2 1 1 1 1 1 1 0 0 0 0 1 1 1 1 1 2 2 2 2 2 2 2 2 3 3
3 4 6 5 3 4 4 7 3 2 3 3 3 3 2 3 3 3 3 2 2 2 2 2 2 1 1 1 1 1 1 0 0 1 1 1 1 1 2 2 2 2 3 3 3 3 3 3 3
Wind_Direction
135 126 124 89 55 49 1 288 283 337 18 72 106 104 117 117 151 166 140 136 134 140 151 157 152 146 140 132 125 120 116 111 106 102 101 102 100 97 98 100 102 103 105 106 105 104 104 104 105
137 143 81 61 76 58 308 281 334 310 138 124 83 76 83 77 77 110 127 145 139 140 144 154 153 148 143 137 131 126 122 117 112 107 103 100 98 95 97 99 100 102 107 110 109 107 105 103 103
151 126 83 71 92 159 229 267 268 11 100 87 78 58 81 123 126 144 157 143 133 137 142 160 155 149 144 139 136 132 127 122 116 111 105 99 94 90 92 92 96 108 114 116 114 111 108 107 105
106 54 56 70 110 220 217 240 177 97 30 51 91 69 54 74 141 141 134 137 134 139 145 162 155 151 146 142 140 136 130 124 116 111 106 99 95 90 87 86 99 127 131 123 119 114 110 109 108
64 76 60 41 281 260 241 232 172 125 81 48 90 88 38 24 101 121 132 139 142 144 147 161 156 153 150 146 142 137 132 125 117 112 105 95 90 90 80 64 72 124 139 132 122 118 112 110 110
59 68 82 290 278 277 270 234 138 109 124 96 96 103 47 96 121 134 136 138 142 145 146 154 161 158 154 152 147 138 134 128 120 112 102 92 85 80 73 64 65 97 124 124 124 121 112 108 109
104 97 138 189 259 288 250 128 143 139 143 160 133 115 135 149 146 135 130 128 132 136 138 141 150 156 157 154 150 143 135 130 125 115 107 96 82 73 69 67 73 89 107 120 127 123 114 106 105
122 101 104 215 219 262 259 55 119 138 146 132 132 145 189 186 148 124 113 113 122 128 134 135 128 128 143 157 160 151 143 136 127 115 109 99 82 65 67 68 72 87 105 117 121 120 116 109 106
92 79 177 214 199 231 227 85 45 93 118 119 138 170 169 144 137 126 120 122 142 156 152 146 140 133 132 150 161 151 149 143 129 113 103 81 37 31 42 63 71 83 103 113 116 118 114 109 108
91 132 226 219 197 191 200 151 164 109 109 126 84 105 129 141 147 150 154 161 174 182 182 170 159 154 148 166 132 105 116 103 91 71 61 48 37 29 38 45 61 76 94 108 113 114 111 101 95
143 191 231 247 207 176 165 188 159 141 195 205 181 158 147 153 159 164 167 171 182 181 179 178 173 165 158 144 127 110 95 87 77 73 65 58 47 30 28 35 32 48 68 78 91 93 84 88 94
175 249 223 253 181 164 170 159 162 187 213 196 167 156 155 163 171 174 176 178 174 174 183 181 180 171 166 150 146 141 136 129 121 100 79 87 69 45 40 44 37 42 54 73 77 82 85 90 94
208 272 273 255 288 184 152 175 180 240 224 126 137 148 161 169 175 176 175 173 173 182 187 183 179 173 164 154 161 152 162 158 156 109 108 123 127 98 70 63 56 53 64 79 85 86 87 85 89
228 261 302 308 320 170 140 160 133 246 134 130 148 162 169 174 173 166 170 177 182 185 183 177 176 168 156 158 162 164 165 160 144 145 161 156 145 128 113 83 69 61 71 84 95 97 94 92 97
325 349 340 332 2 189 116 334 238 211 136 148 162 168 171 178 174 178 181 179 181 179 173 173 174 155 152 155 161 163 157 152 170 196 191 174 155 144 136 120 98 78 91 96 92 85 83 90 92
38 45 342 308 357 336 126 256 286 129 139 161 171 170 174 183 185 188 181 179 174 162 157 166 166 151 153 154 154 151 147 148 171 177 173 183 163 152 142 137 140 119 106 104 105 94 87 80 82
33 47 285 306 342 56 108 254 298 109 145 173 183 178 175 178 179 181 179 178 170 161 152 155 153 152 156 151 145 144 139 153 169 165 174 177 161 153 143 147 153 140 126 118 128 105 106 101 90
239 252 279 277 310 58 66 278 302 158 157 179 187 181 170 173 186 172 175 175 160 152 148 150 147 143 138 130 114 101 92 94 136 172 184 165 163 155 147 144 143 141 133 126 120 114 98 104 111
178 196 257 264 264 102 198 277 292 273 161 179 185 172 159 164 142 136 153 158 145 143 146 149 146 140 131 136 141 146 166 177 193 203 174 163 160 156 152 145 140 144 147 148 138 124 108 86 92
175 219 266 295 346 147 132 314 305 69 201 192 178 172 168 144 112 122 131 139 143 147 157 150 149 146 141 145 153 154 141 143 172 351 33 101 147 165 166 159 157 158 147 134 134 127 119 108 95
224 202 222 242 341 39 84 337 337 350 19 43 87 155 161 162 161 154 144 151 139 138 163 165 150 141 135 125 105 88 73 53 34 10 338 325 160 169 173 169 163 161 157 159 157 147 141 145 120
253 229 206 207 137 291 83 281 297 324 352 339 237 165 179 172 163 161 155 149 144 142 130 126 131 135 138 138 138 135 140 162 206 223 236 310 22 159 168 169 167 162 160 161 167 155 148 145 150
220 210 168 167 152 38 17 146 286 339 296 268 251 206 196 177 164 157 152 145 130 120 117 113 102 92 111 137 146 139 141 170 187 98 60 359 345 331 177 170 164 166 166 172 162 152 148 150 156
160 72 54 50 76 360 251 164 272 253 238 259 245 212 195 166 146 133 121 113 110 106 107 112 109 88 79 120 144 150 155 151 115 88 13 289 311 308 259 172 162 172 175 183 175 167 164 166 161
89 90 39 5 16 254 270 167 244 254 238 224 222 207 184 159 147 142 136 132 136 134 132 131 126 115 105 112 150 165 163 162 174 193 211 233 250 252 253 197 180 177 182 186 175 167 175 174 168
164 138 153 191 215 266 332 228 250 274 283 244 185 165 143 149 150 151 155 152 156 155 145 138 132 134 133 127 138 162 157 163 186 203 202 221 238 241 230 192 190 177 176 184 170 170 183 173 176
135 153 159 134 142 168 281 288 298 307 360 64 109 127 145 154 156 161 159 156 158 161 170 160 160 159 165 151 123 98 133 156 176 186 196 226 255 250 210 188 191 199 187 189 175 176 177 172 180
132 141 100 116 144 227 274 258 246 259 265 258 166 163 161 151 155 158 162 177 180 175 167 147 161 175 183 173 173 168 173 175 172 137 147 188 232 236 191 178 194 223 213 198 185 185 175 167 185
87 83 98 111 147 158 222 262 226 216 219 211 210 196 178 173 174 172 175 176 164 143 142 137 149 145 149 183 186 177 221 177 111 173 214 215 224 214 213 217 207 215 220 211 197 201 185 177 187
140 149 140 147 199 167 176 262 281 197 197 188 191 182 173 176 173 162 153 140 137 151 146 138 153 162 179 191 194 208 248 254 243 260 255 225 223 230 223 216 215 223 217 207 200 202 199 192 199